Simultaneous Nadir Overpasses (SNOs) Predictions

Prediction of SNOs between GOES-16 and NOAA-20 Satellite Orbit:

Table of predicted SNOs for the next 14.0 days since TLE Epoch: 3/27/2021
Index Date Time (GOES-16) GOES-16 Lat,Lon NOAA-20 Lat,Lon Distance(km) Time Diff (sec)
1 03/27/2021 18:32:49 0.04, -75.22 -0.42, -77.20 225.71 80
2 03/28/2021 18:16:46 0.04, -75.23 0.63, -72.68 291.21 80
3 03/30/2021 06:38:34 -0.04, -75.25 0.58, -77.95 308.17 80
4 03/31/2021 06:17:10 -0.04, -75.26 -0.47, -73.43 208.63 80
5 04/01/2021 18:39:07 0.04, -75.27 -0.76, -78.73 395.45 80
6 04/02/2021 18:23:03 0.04, -75.28 0.29, -74.21 121.79 80
7 04/04/2021 06:44:51 -0.03, -75.30 0.91, -79.48 476.54 80
8 04/05/2021 06:23:28 -0.03, -75.32 -0.14, -74.96 40.91 80
9 04/07/2021 18:26:41 0.02, -75.35 -0.05, -75.74 44.39 80
10 04/08/2021 18:10:36 0.02, -75.37 0.95, -71.21 474.08 80
